Time,TemperatureF,DewpointF,PressureIn,WindDirection,WindDirectionDegrees,WindSpeedMPH,WindSpeedGustMPH,Humidity,HourlyPrecipIn,Conditions,Clouds,dailyrainin,SoftwareType,DateUTC
2013-07-29 00:03:00,65.5,61.5,29.94,SSW,202,1.7,-999.0,87,-99.99,,,0.00,Acu-Link.com,2013-07-29 04:03:00,
2013-07-29 00:18:00,65.5,61.5,29.94,South,180,2.7,-999.0,87,-99.99,,,0.00,Acu-Link.com,2013-07-29 04:18:00,
2013-07-29 00:33:00,65.5,61.8,29.94,West,270,3.7,-999.0,88,-99.99,,,0.00,Acu-Link.com,2013-07-29 04:33:00,
2013-07-29 00:49:00,65.5,61.8,29.95,WNW,292,2.2,-999.0,88,-99.99,,,0.00,Acu-Link.com,2013-07-29 04:49:00,
2013-07-29 01:04:00,65.3,61.7,29.95,WNW,292,4.7,-999.0,88,-99.99,,,0.00,Acu-Link.com,2013-07-29 05:04:00,
2013-07-29 01:19:00,65.3,62.0,29.93,WSW,247,1.7,-999.0,89,-99.99,,,0.00,Acu-Link.com,2013-07-29 05:19:00,
2013-07-29 01:34:00,65.3,62.0,29.94,ESE,112,1.7,-999.0,89,-99.99,,,0.00,Acu-Link.com,2013-07-29 05:34:00,
2013-07-29 01:49:00,65.3,62.0,29.94,ESE,112,1.7,-999.0,89,-99.99,,,0.00,Acu-Link.com,2013-07-29 05:49:00,
2013-07-29 02:05:00,65.3,62.0,29.94,ESE,112,2.7,-999.0,89,-99.99,,,0.00,Acu-Link.com,2013-07-29 06:05:00,
2013-07-29 02:20:00,65.3,62.3,29.94,West,270,2.7,-999.0,90,-99.99,,,0.00,Acu-Link.com,2013-07-29 06:20:00,
2013-07-29 02:35:00,65.1,62.1,29.93,South,180,0.0,-999.0,90,-99.99,,,0.00,Acu-Link.com,2013-07-29 06:35:00,
2013-07-29 02:50:00,64.9,62.2,29.93,NNE,22,2.7,-999.0,91,-99.99,,,0.00,Acu-Link.com,2013-07-29 06:50:00,
2013-07-29 03:05:00,64.9,62.2,29.94,WSW,247,4.2,-999.0,91,-99.99,,,0.01,Acu-Link.com,2013-07-29 07:05:00,
2013-07-29 03:21:00,64.8,62.1,29.94,WSW,247,0.0,-999.0,91,-99.99,,,0.01,Acu-Link.com,2013-07-29 07:21:00,
2013-07-29 03:36:00,64.8,62.4,29.94,SSW,202,1.7,-999.0,92,-99.99,,,0.02,Acu-Link.com,2013-07-29 07:36:00,
2013-07-29 04:06:00,64.6,62.2,29.94,ESE,112,1.7,-999.0,92,-99.99,,,0.02,Acu-Link.com,2013-07-29 08:06:00,
2013-07-29 04:21:00,64.6,62.5,29.94,NNW,337,1.1,-999.0,93,-99.99,,,0.02,Acu-Link.com,2013-07-29 08:21:00,
2013-07-29 04:37:00,64.6,62.5,29.94,NW,315,0.0,-999.0,93,-99.99,,,0.02,Acu-Link.com,2013-07-29 08:37:00,
2013-07-29 04:52:00,64.4,62.3,29.95,NE,45,0.0,-999.0,93,-99.99,,,0.02,Acu-Link.com,2013-07-29 08:52:00,
2013-07-29 05:07:00,64.4,62.3,29.93,SSW,202,1.1,-999.0,93,-99.99,,,0.02,Acu-Link.com,2013-07-29 09:07:00,
2013-07-29 05:22:00,63.0,60.6,29.95,NNW,337,2.7,-999.0,92,-99.99,,,0.04,Acu-Link.com,2013-07-29 09:22:00,
2013-07-29 05:37:00,61.3,59.6,29.96,WSW,247,1.7,-999.0,94,-99.99,,,0.26,Acu-Link.com,2013-07-29 09:37:00,
2013-07-29 05:53:00,61.2,60.0,29.97,SW,225,2.2,-999.0,96,-99.99,,,0.39,Acu-Link.com,2013-07-29 09:53:00,
2013-07-29 06:08:00,61.2,60.0,29.98,SW,225,1.1,-999.0,96,-99.99,,,0.51,Acu-Link.com,2013-07-29 10:08:00,
2013-07-29 06:23:00,61.0,60.1,29.97,SE,135,0.0,-999.0,97,-99.99,,,0.53,Acu-Link.com,2013-07-29 10:23:00,
2013-07-29 06:38:00,61.2,60.3,29.97,ESE,112,1.7,-999.0,97,-99.99,,,0.55,Acu-Link.com,2013-07-29 10:38:00,
2013-07-29 07:09:00,62.2,61.0,29.96,SW,225,0.0,-999.0,96,-99.99,,,0.56,Acu-Link.com,2013-07-29 11:09:00,
2013-07-29 07:24:00,62.4,61.2,29.97,East,90,0.0,-999.0,96,-99.99,,,0.56,Acu-Link.com,2013-07-29 11:24:00,
2013-07-29 07:39:00,62.6,61.4,29.96,WSW,247,0.0,-999.0,96,-99.99,,,0.56,Acu-Link.com,2013-07-29 11:39:00,
2013-07-29 08:27:00,63.5,62.3,29.98,SW,225,2.2,-999.0,96,-99.99,,,0.56,Acu-Link.com,2013-07-29 12:27:00,
2013-07-29 08:42:00,63.9,62.1,29.98,WSW,247,1.7,-999.0,94,-99.99,,,0.56,Acu-Link.com,2013-07-29 12:42:00,
2013-07-29 08:57:00,64.9,62.5,29.97,WNW,292,0.0,-999.0,92,-99.99,,,0.56,Acu-Link.com,2013-07-29 12:57:00,
2013-07-29 09:12:00,64.8,62.1,29.97,SE,135,0.0,-999.0,91,-99.99,,,0.56,Acu-Link.com,2013-07-29 13:12:00,
2013-07-29 09:58:00,66.9,61.6,29.97,South,180,1.1,-999.0,83,-99.99,,,0.56,Acu-Link.com,2013-07-29 13:58:00,
2013-07-29 10:13:00,67.5,62.1,29.97,East,90,0.0,-999.0,83,-99.99,,,0.56,Acu-Link.com,2013-07-29 14:13:00,
2013-07-29 10:28:00,68.9,61.7,29.96,ENE,67,3.2,-999.0,78,-99.99,,,0.56,Acu-Link.com,2013-07-29 14:28:00,
2013-07-29 11:14:00,72.1,64.1,29.96,South,180,1.7,-999.0,76,-99.99,,,0.56,Acu-Link.com,2013-07-29 15:14:00,
2013-07-29 11:29:00,72.9,61.7,29.97,WNW,292,0.0,-999.0,68,-99.99,,,0.56,Acu-Link.com,2013-07-29 15:29:00,
2013-07-29 12:00:00,74.8,63.5,29.95,SW,225,7.3,-999.0,68,-99.99,,,0.56,Acu-Link.com,2013-07-29 16:00:00,
2013-07-29 12:15:00,74.7,61.7,29.94,WSW,247,6.3,-999.0,64,-99.99,,,0.56,Acu-Link.com,2013-07-29 16:15:00,
2013-07-29 12:30:00,74.1,62.0,29.94,WSW,247,2.7,-999.0,66,-99.99,,,0.56,Acu-Link.com,2013-07-29 16:30:00,
2013-07-29 13:00:00,75.9,61.0,29.94,West,270,9.4,-999.0,60,-99.99,,,0.56,Acu-Link.com,2013-07-29 17:00:00,
2013-07-29 13:31:00,73.2,60.7,29.93,West,270,6.8,-999.0,65,-99.99,,,0.56,Acu-Link.com,2013-07-29 17:31:00,
2013-07-29 13:46:00,66.4,60.7,29.97,NNW,337,10.4,-999.0,82,-99.99,,,0.57,Acu-Link.com,2013-07-29 17:46:00,
2013-07-29 14:01:00,65.8,60.5,29.94,NNE,22,0.0,-999.0,83,-99.99,,,0.74,Acu-Link.com,2013-07-29 18:01:00,
2013-07-29 14:16:00,69.1,61.2,29.93,SW,225,1.7,-999.0,76,-99.99,,,0.74,Acu-Link.com,2013-07-29 18:16:00,
2013-07-29 15:02:00,73.0,63.0,29.95,ESE,112,4.2,-999.0,71,-99.99,,,0.74,Acu-Link.com,2013-07-29 19:02:00,
2013-07-29 15:17:00,72.3,62.8,29.94,SE,135,3.2,-999.0,72,-99.99,,,0.74,Acu-Link.com,2013-07-29 19:17:00,
2013-07-29 15:33:00,71.6,63.2,29.93,SW,225,0.0,-999.0,75,-99.99,,,0.74,Acu-Link.com,2013-07-29 19:33:00,
2013-07-29 15:48:00,73.9,62.7,29.93,SE,135,2.7,-999.0,68,-99.99,,,0.74,Acu-Link.com,2013-07-29 19:48:00,
2013-07-29 16:03:00,75.4,63.2,29.93,WSW,247,4.2,-999.0,66,-99.99,,,0.74,Acu-Link.com,2013-07-29 20:03:00,
2013-07-29 16:18:00,76.5,63.4,29.92,NE,45,0.0,-999.0,64,-99.99,,,0.74,Acu-Link.com,2013-07-29 20:18:00,
2013-07-29 16:33:00,77.0,62.0,29.94,NW,315,1.1,-999.0,60,-99.99,,,0.74,Acu-Link.com,2013-07-29 20:33:00,
2013-07-29 16:49:00,76.8,63.2,29.92,East,90,0.0,-999.0,63,-99.99,,,0.74,Acu-Link.com,2013-07-29 20:49:00,
2013-07-29 17:20:00,75.4,64.1,29.93,SE,135,3.7,-999.0,68,-99.99,,,0.74,Acu-Link.com,2013-07-29 21:20:00,
2013-07-29 17:35:00,73.4,60.0,29.94,West,270,1.1,-999.0,63,-99.99,,,0.74,Acu-Link.com,2013-07-29 21:35:00,
2013-07-29 17:51:00,74.5,60.2,29.92,WSW,247,2.7,-999.0,61,-99.99,,,0.74,Acu-Link.com,2013-07-29 21:51:00,
2013-07-29 18:08:00,75.6,60.2,29.91,SW,225,2.7,-999.0,59,-99.99,,,0.74,Acu-Link.com,2013-07-29 22:08:00,
2013-07-29 18:23:00,73.4,60.5,29.93,NNE,22,2.2,-999.0,64,-99.99,,,0.74,Acu-Link.com,2013-07-29 22:23:00,
2013-07-29 18:38:00,71.8,59.8,29.91,West,270,2.2,-999.0,66,-99.99,,,0.74,Acu-Link.com,2013-07-29 22:38:00,
2013-07-29 19:10:00,70.3,59.2,29.95,ESE,112,0.0,-999.0,68,-99.99,,,0.74,Acu-Link.com,2013-07-29 23:10:00,
2013-07-29 19:25:00,69.8,60.0,29.94,West,270,0.0,-999.0,71,-99.99,,,0.74,Acu-Link.com,2013-07-29 23:25:00,
2013-07-29 19:40:00,68.7,60.1,29.97,ENE,67,0.0,-999.0,74,-99.99,,,0.74,Acu-Link.com,2013-07-29 23:40:00,
2013-07-29 20:11:00,65.8,58.0,29.98,WNW,292,0.0,-999.0,76,-99.99,,,0.74,Acu-Link.com,2013-07-30 00:11:00,
2013-07-29 20:26:00,64.2,57.2,29.99,SE,135,2.2,-999.0,78,-99.99,,,0.74,Acu-Link.com,2013-07-30 00:26:00,
2013-07-29 20:41:00,62.8,56.5,29.99,ESE,112,0.0,-999.0,80,-99.99,,,0.74,Acu-Link.com,2013-07-30 00:41:00,
2013-07-29 21:12:00,61.5,56.3,30.01,SW,225,0.0,-999.0,83,-99.99,,,0.74,Acu-Link.com,2013-07-30 01:12:00,
2013-07-29 21:27:00,62.1,56.5,30.02,SE,135,1.1,-999.0,82,-99.99,,,0.74,Acu-Link.com,2013-07-30 01:27:00,
2013-07-29 21:43:00,62.2,56.3,30.02,East,90,0.0,-999.0,81,-99.99,,,0.74,Acu-Link.com,2013-07-30 01:43:00,
2013-07-29 22:13:00,61.7,56.5,30.02,West,270,1.7,-999.0,83,-99.99,,,0.74,Acu-Link.com,2013-07-30 02:13:00,
2013-07-29 22:28:00,61.7,56.5,30.02,South,180,0.0,-999.0,83,-99.99,,,0.74,Acu-Link.com,2013-07-30 02:28:00,
2013-07-29 22:44:00,61.3,56.4,30.03,West,270,2.2,-999.0,84,-99.99,,,0.74,Acu-Link.com,2013-07-30 02:44:00,
2013-07-29 22:59:00,61.0,56.1,30.02,WNW,292,1.1,-999.0,84,-99.99,,,0.74,Acu-Link.com,2013-07-30 02:59:00,
2013-07-29 23:14:00,60.6,56.1,30.04,WNW,292,0.0,-999.0,85,-99.99,,,0.74,Acu-Link.com,2013-07-30 03:14:00,
2013-07-29 23:29:00,59.7,55.5,30.03,NW,315,0.0,-999.0,86,-99.99,,,0.74,Acu-Link.com,2013-07-30 03:29:00,
2013-07-29 23:44:00,59.4,55.8,30.04,NW,315,0.0,-999.0,88,-99.99,,,0.74,Acu-Link.com,2013-07-30 03:44:00,